Terminal Aerodrome Forecast
Issued by NWS

Home | Current Version | Previous Version | Text Only | Print | Product List | Glossary On
Versions: 1 2 3 4 5 6 7 8 9 10 11 12 13 14 15 16 17 18 19 20 21 22 23 24 25 26 27 28 29 30 31 32 33 34 35
000
FTUS43 KDTX 300144 AAA
TAFYIP
TAF AMD
KYIP 300144Z 3002/3024 13004KT P6SM SCT060 OVC090
     FM300300 11003KT 4SM -SHRA BR SCT030 OVC060
     FM300500 12005KT 3SM BR OVC050
     FM301000 VRB03KT 1SM BR BKN015
     FM301400 23005KT 3SM BR BKN025
     FM301600 23007KT P6SM BKN045=

USA.gov is the U.S. government's official web portal to all federal, state and local government web resources and services.